Temp
20 21 20 21 21 21 22 20 20 20 20 21 20 20 20 20 21 22 23 22 20 21 22 21 23 24 21 18 19 19 19 19 19 19 19 18 18 18 18 17 17 16 16 16 15 15 15 16 16 17 17 18 18 19 19 19 18 17 17 17 17 18 18 18 18 18 18 18 17 17 17 17 17 17 17 17 17 17 17 17 17 16 16 16 16 16
20 20 20 21 21 21 20 19 19 19 20 20 20 20 20 20 21 22 23 22 20 22 21 19 22 23 20 19 18 18 19 19 19 19 19 19 18 18 18 17 17 17 16 16 15 15 15 15 16 16 17 17 18 18 19 19 19 18 17 17 17 17 18 18 18 18 18 18 18 17 17 17 17 17 17 17 17 17 17 17 16 17 17 17 17 16
20 20 21 21 18 18 18 17 18 20 20 20 19 20 21 20 21 22 22 21 19 22 22 20 22 22 20 19 18 18 19 19 18 18 18 18 18 18 18 18 17 17 16 16 15 15 15 15 15 16 16 16 17 17 18 18 19 19 18 18 17 18 18 18 18 18 18 18 18 18 17 17 17 17 17 17 17 17 17 16 16 16 16 17 17 17
20 20 21 19 17 18 19 17 18 19 19 20 19 20 21 20 20 22 22 21 19 20 21 21 22 22 21 19 19 18 19 19 18 18 18 17 18 18 18 18 17 17 16 16 16 15 15 15 15 16 15 16 16 17 17 18 18 19 19 18 17 18 18 18 18 18 19 19 18 18 17 17 17 17 17 17 17 17 16 16 16 16 16 16 17 17
21 20 19 18 18 20 20 18 18 19 20 20 20 20 21 22 22 22 21 21 20 19 20 22 22 22 22 21 20 19 19 19 18 18 18 17 17 17 17 17 17 17 17 16 16 15 15 15 15 15 15 16 16 16 17 18 18 19 19 18 18 18 18 18 18 18 19 19 18 17 17 17 17 17 16 16 16 16 16 16 16 16 16 17 17 17
21 20 18 19 19 19 20 20 19 20 20 20 20 21 22 23 22 22 21 21 22 21 19 20 21 21 22 22 21 20 20 19 18 18 18 17 17 17 17 17 17 17 17 16 16 16 15 15 15 15 15 16 16 17 17 18 19 19 18 18 18 18 18 18 18 19 19 19 18 18 17 16 16 16 16 16 16 16 16 16 16 16 16 17 17 17
21 19 18 20 20 19 20 20 19 19 20 21 21 20 21 22 22 22 22 21 21 21 19 18 21 21 21 23 21 19 20 19 18 18 18 18 17 17 17 17 17 17 16 16 16 16 15 15 15 15 15 16 16 16 17 17 18 18 17 17 18 18 18 18 19 19 19 19 18 18 18 17 17 16 16 16 16 16 16 16 16 16 16 16 16 16
20 20 19 20 20 19 20 21 20 19 21 21 20 19 21 23 23 22 23 22 20 20 19 19 20 21 20 22 20 18 20 20 19 18 18 18 18 17 17 17 16 17 17 16 16 16 16 15 15 15 15 16 16 16 16 16 16 15 15 15 16 19 19 19 19 19 19 19 18 18 18 17 17 17 17 16 16 16 16 16 16 16 16 16 16 16
20 21 21 21 21 20 21 22 20 19 22 22 19 18 20 21 21 21 22 22 19 20 21 20 20 20 20 21 20 19 20 21 20 20 19 18 18 17 17 17 17 17 17 16 17 17 16 15 15 15 16 16 16 15 15 14 14 14 14 14 15 18 19 19 19 18 18 18 18 18 18 17 17 17 16 16 16 16 16 16 16 16 16 16 16 16
20 21 21 22 22 22 22 21 18 21 23 20 18 18 19 19 19 20 21 21 20 20 21 20 19 20 20 20 21 20 21 21 21 20 19 19 18 18 17 17 17 16 16 17 17 16 15 15 16 16 15 15 14 14 14 14 14 14 15 16 16 17 18 18 18 18 18 18 18 18 18 17 17 16 16 16 16 16 16 16 16 15 16 16 16 16
20 19 19 21 22 22 22 19 17 19 20 19 19 20 20 20 20 20 19 20 21 20 20 19 18 20 20 20 20 20 20 19 19 20 20 18 18 18 17 17 17 17 16 16 17 16 15 16 16 15 14 14 13 14 14 14 15 15 16 17 17 17 17 17 18 18 18 18 18 18 18 17 17 17 16 16 16 16 16 16 15 15 15 15 15 15
20 20 20 21 21 21 22 20 18 18 18 19 22 21 21 20 20 20 20 20 20 20 20 18 17 19 21 20 19 18 18 17 17 19 20 18 17 18 17 17 17 17 17 17 17 16 16 16 15 14 13 13 14 16 16 16 16 16 17 17 17 17 17 17 17 18 18 18 18 18 18 18 18 17 17 16 16 16 16 15 15 15 15 15 15 15
21 22 21 21 21 21 23 22 20 19 19 21 21 21 20 20 19 20 19 19 19 20 19 17 17 19 20 19 18 17 17 17 15 16 16 15 16 17 17 17 17 17 17 17 17 17 16 15 14 13 13 14 15 17 17 18 18 18 18 18 18 17 17 17 18 18 18 18 18 18 18 18 18 18 18 18 17 16 15 15 15 15 15 15 15 15
21 21 21 22 22 21 22 22 21 21 21 21 21 21 20 19 19 19 17 17 18 19 18 16 18 20 20 19 18 17 17 16 15 14 14 14 15 16 16 16 16 16 16 16 16 16 16 14 13 12 13 15 16 16 17 18 19 18 17 17 17 17 17 17 18 18 18 18 18 18 18 18 18 18 18 18 18 16 16 16 16 15 16 16 16 16
20 20 21 23 22 21 23 23 22 22 21 20 20 20 21 20 20 19 18 19 19 19 18 17 19 20 20 19 17 17 17 16 15 14 14 14 14 15 15 15 15 15 15 15 14 14 13 12 12 13 14 15 15 16 16 17 17 16 16 17 16 17 17 17 17 18 18 18 18 18 18 18 18 18 18 19 18 17 16 16 16 16 15 16 16 16
19 20 21 21 20 21 23 21 21 22 21 18 17 20 20 20 21 18 17 17 18 18 18 18 18 18 18 18 17 17 17 16 15 15 15 15 14 14 14 14 14 14 14 14 14 14 13 11 12 13 13 14 15 15 16 16 14 14 17 18 17 16 16 17 17 18 18 19 18 18 18 18 18 18 18 18 18 17 17 17 16 16 15 16 16 16
19 20 21 20 20 21 21 21 21 22 21 18 18 20 19 18 20 19 16 15 16 19 18 16 17 18 17 18 18 17 17 16 15 15 15 15 15 15 15 15 15 15 14 14 14 16 15 12 12 12 13 15 15 15 16 15 14 15 18 19 17 15 16 17 18 18 18 18 18 18 18 18 18 18 18 18 18 18 17 17 17 16 16 16 16 15
19 20 20 20 21 21 19 20 21 20 20 20 20 20 18 17 19 19 18 16 16 19 18 15 17 17 18 19 18 18 18 16 16 15 15 16 16 16 16 16 16 15 14 14 14 15 15 12 12 12 13 15 16 15 15 14 14 16 19 18 17 16 17 18 18 18 17 17 18 18 17 17 18 18 18 19 19 18 17 17 17 17 16 16 16 16
19 21 20 19 20 20 19 21 21 19 19 20 20 19 19 19 20 19 19 18 18 18 17 16 15 16 18 19 18 18 18 17 16 15 15 16 16 16 15 15 15 14 14 15 15 15 15 13 12 13 13 14 14 13 14 14 14 16 18 18 17 16 17 18 18 17 17 17 17 17 17 18 18 18 18 18 18 18 17 18 18 17 17 17 16 16
18 19 20 19 19 19 20 21 21 20 19 19 19 19 18 19 19 19 18 18 19 17 16 17 16 17 19 18 18 19 18 17 16 16 15 15 15 15 14 14 14 13 13 13 13 14 14 12 12 14 14 14 15 13 13 14 15 16 17 17 16 15 16 17 17 17 16 17 17 17 18 18 18 18 18 18 18 18 18 18 18 18 17 17 17 16
18 18 20 20 19 19 20 19 19 20 20 20 20 20 19 18 17 18 18 16 18 18 17 17 17 18 18 17 18 19 18 17 16 15 15 14 14 14 14 14 14 13 13 13 13 13 13 11 12 13 13 15 15 14 13 13 14 15 15 15 14 14 15 16 16 16 16 16 16 17 17 18 17 17 17 18 18 18 18 18 17 17 17 17 17 16
19 19 19 20 19 19 19 17 17 18 19 20 20 19 19 18 18 19 18 15 16 18 17 17 18 19 18 16 16 17 16 16 15 14 15 14 14 14 13 13 13 13 13 13 13 13 12 11 11 12 13 14 14 13 13 13 13 13 13 13 13 14 14 15 15 15 15 15 15 16 17 17 17 16 17 17 18 17 17 17 17 16 17 17 17 16
18 19 19 19 18 18 18 17 16 16 17 18 18 16 17 18 19 21 20 17 16 16 15 16 19 19 16 14 14 15 15 15 15 15 15 14 14 14 13 13 13 13 13 13 13 12 11 11 12 12 13 13 13 12 12 12 12 13 12 12 13 13 13 14 14 15 15 14 15 16 16 17 16 16 17 17 17 17 16 16 16 16 16 16 17 16
17 18 18 18 18 18 18 19 17 16 16 18 17 15 15 16 17 18 18 17 17 16 16 17 18 18 16 13 13 14 15 15 15 15 14 14 14 14 13 13 13 13 13 13 13 12 11 11 12 12 12 12 12 12 12 12 12 12 12 13 13 13 13 13 14 14 14 14 15 15 16 16 16 16 17 16 16 16 16 16 16 16 16 16 16 16
19 18 18 17 17 17 18 18 18 18 17 17 16 15 14 15 15 16 16 16 18 17 17 18 19 18 16 13 13 14 15 16 15 14 14 14 14 14 14 14 13 13 13 13 13 13 12 12 11 11 12 12 12 12 13 13 13 13 13 13 13 13 13 13 13 13 14 14 15 15 15 16 16 16 16 16 15 15 16 16 16 16 16 16 16 15
18 16 17 18 17 16 17 17 17 17 16 16 16 16 15 14 15 17 17 18 19 16 15 19 19 17 15 14 14 14 15 15 15 14 14 14 14 14 14 14 13 13 13 13 13 13 13 12 11 11 12 12 13 13 13 13 13 13 13 12 12 13 13 13 13 13 14 15 15 15 15 16 16 16 16 15 15 15 16 16 15 15 15 15 15 15
17 14 15 17 18 17 17 16 15 16 16 16 16 17 16 14 15 17 18 19 18 15 16 17 17 17 15 14 13 13 14 14 14 14 14 14 14 13 13 13 13 13 13 13 13 13 13 13 12 11 12 12 13 13 13 14 14 14 13 12 12 12 13 13 13 13 14 14 15 15 15 15 16 16 15 15 14 15 15 15 15 15 15 15 15 15
17 15 13 15 15 15 15 15 15 16 16 16 16 17 16 15 16 17 18 17 16 16 17 15 14 16 15 12 11 12 12 13 13 13 13 13 13 13 13 13 13 13 13 13 13 13 13 14 12 11 11 12 13 13 13 13 14 14 14 13 13 13 13 13 13 13 14 14 15 15 15 15 15 15 15 14 14 15 15 15 15 15 15 15 15 15
17 15 13 14 14 13 14 15 15 15 15 14 15 15 16 16 17 18 17 14 14 18 18 14 13 14 12 10 10 10 10 11 11 10 10 11 12 12 13 13 13 13 12 12 12 12 13 13 12 10 11 12 13 14 14 14 14 14 14 14 14 14 13 13 13 13 14 14 14 15 15 15 15 15 15 14 15 15 15 15 15 15 14 14 14 14
16 15 13 14 14 13 14 15 15 15 14 14 13 13 13 14 14 15 13 11 12 15 13 12 13 11 9 9 9 9 9 9 9 9 9 10 10 12 13 13 13 12 12 12 12 11 12 11 9 10 11 11 12 13 13 14 14 14 15 14 14 14 14 14 14 13 14 14 14 14 15 15 15 15 15 14 15 15 15 15 15 15 14 14 14 14
16 15 13 14 14 13 13 14 13 14 15 14 12 11 12 13 13 12 12 10 12 12 10 11 13 10 9 9 8 8 9 9 9 9 8 8 8 10 12 12 12 12 12 11 11 11 12 10 8 9 11 11 11 11 12 13 14 15 15 14 14 14 14 14 14 14 14 14 14 14 15 15 15 15 15 15 15 15 15 15 15 15 14 14 14 14
16 14 13 14 14 12 12 13 13 14 14 14 13 12 11 12 12 11 10 9 10 12 11 13 13 10 9 9 8 8 8 8 8 8 8 8 8 8 9 9 9 10 10 10 10 10 10 10 7 7 9 11 11 11 12 12 13 14 15 15 15 14 14 14 15 15 15 15 15 15 15 15 15 15 15 15 15 15 15 15 15 15 14 14 14 14
14 14 14 14 14 13 12 12 12 13 14 14 12 10 9 10 10 10 9 7 7 9 12 13 12 9 9 9 8 8 8 8 8 8 8 8 8 8 8 8 8 8 8 8 8 8 8 8 7 7 9 10 11 11 11 12 12 13 14 14 15 15 15 15 15 15 15 15 15 15 15 15 15 15 15 15 15 15 15 15 15 15 15 15 14 14
13 15 14 14 14 13 11 11 12 13 14 12 9 8 8 9 9 9 9 7 7 8 9 10 9 8 8 8 8 8 8 8 7 7 7 7 7 8 8 7 8 8 8 8 8 8 7 7 8 8 9 10 10 11 11 12 12 13 13 14 15 15 15 15 15 15 15 15 15 15 15 15 15 15 15 15 15 15 15 15 15 15 15 14 14 14
14 15 13 12 13 13 11 12 13 13 12 10 8 7 8 9 8 8 8 7 7 8 8 8 8 8 8 8 8 8 8 8 8 7 7 7 7 7 7 7 8 8 8 8 8 8 7 8 9 9 10 10 11 11 12 11 12 12 13 13 14 14 15 15 15 15 15 15 15 15 15 15 15 15 15 15 15 15 15 15 14 14 14 14 14 14
15 14 13 12 12 12 12 13 13 11 9 9 9 9 8 8 9 10 10 8 7 8 8 8 8 8 8 8 8 8 8 8 8 7 7 6 6 7 7 7 7 7 7 7 7 7 8 9 10 10 10 11 11 12 12 12 12 12 12 13 13 13 13 14 14 14 14 14 14 14 15 15 15 15 14 14 14 14 14 14 14 14 14 14 14 14
14 14 14 13 11 11 11 10 9 9 9 9 9 9 8 8 8 9 10 9 7 7 7 8 8 9 9 9 9 8 8 9 9 8 7 7 6 6 6 6 6 6 6 6 7 7 8 9 10 10 10 11 11 11 11 11 12 12 12 12 12 12 12 13 13 13 13 13 14 14 14 14 14 14 14 14 14 14 14 14 13 13 13 13 13 13
12 13 14 14 11 9 10 9 8 9 10 9 9 8 7 8 7 7 9 9 8 7 7 7 8 8 9 10 9 8 9 10 9 8 7 7 6 6 6 6 6 6 6 7 8 9 9 9 10 10 10 10 11 11 11 11 11 12 12 12 12 12 12 12 12 12 12 13 13 13 13 14 14 14 14 14 14 13 13 13 13 13 13 13 13 13
11 11 13 13 11 10 11 11 10 10 9 8 7 8 7 7 6 7 10 9 8 7 7 7 8 7 8 9 9 9 10 10 8 7 8 7 6 6 6 6 6 6 7 8 8 8 9 9 10 10 10 10 11 11 11 11 11 11 12 12 12 12 12 13 13 13 13 13 13 14 14 14 14 13 13 13 13 13 13 13 13 13 13 13 13 13
11 10 11 12 11 10 11 11 9 8 8 7 6 7 7 5 6 9 11 9 8 7 6 7 8 7 7 8 8 9 10 9 8 8 7 6 5 6 6 5 5 6 7 8 8 8 8 9 9 10 10 10 10 10 11 11 11 11 11 11 11 12 12 13 13 13 13 13 13 13 14 13 13 13 13 13 13 13 13 13 13 13 13 13 13 13
9 9 9 10 9 9 10 10 7 7 7 6 6 7 6 6 8 10 9 7 7 7 6 6 7 7 7 8 8 8 8 8 8 7 6 5 6 6 6 6 6 6 7 7 8 8 8 8 9 9 9 9 9 10 10 11 11 11 11 11 11 12 12 12 13 13 13 13 13 13 13 13 13 13 13 13 13 13 13 13 13 13 13 13 12 12
8 8 8 8 8 7 8 8 7 7 6 6 6 7 7 8 9 8 7 6 6 7 6 6 7 7 7 7 8 7 7 7 7 6 6 6 5 5 5 6 6 6 6 7 7 7 7 8 8 8 8 9 9 9 9 10 10 10 10 10 11 12 12 12 12 12 13 13 13 13 13 13 13 13 13 13 13 13 13 13 13 13 13 13 12 12
8 8 7 7 7 7 7 7 8 7 6 5 6 7 7 8 7 6 6 6 6 6 6 6 6 6 6 7 7 7 7 7 6 6 6 6 5 4 4 5 5 5 5 6 6 6 6 6 7 7 8 8 8 8 9 9 9 10 10 10 11 11 12 12 12 12 12 12 13 13 13 13 13 13 13 13 13 13 13 13 13 13 13 12 12 12
7 8 7 6 6 7 8 7 6 6 5 5 6 7 6 6 6 6 6 6 6 6 6 6 6 6 6 6 6 6 6 6 6 5 5 5 4 3 3 4 4 4 4 5 5 5 5 5 6 6 7 7 7 8 8 8 8 9 9 10 10 10 11 11 12 12 12 12 13 13 13 13 13 13 13 13 13 13 13 12 12 12 12 12 12 12
7 7 7 6 5 6 7 6 5 5 5 5 5 5 5 5 6 6 6 6 6 6 6 6 6 6 5 5 5 6 6 5 5 5 4 4 4 2 2 3 3 3 4 4 4 4 4 4 5 5 6 6 7 7 7 7 7 8 9 9 9 9 10 10 11 11 12 12 12 12 12 12 12 12 12 12 12 12 12 12 12 12 12 11 11 11
6 6 6 6 5 5 5 5 5 5 5 5 5 5 5 5 6 6 6 7 6 6 6 6 6 6 5 5 5 6 5 4 4 4 3 3 2 1 1 2 2 3 3 3 3 4 4 4 4 4 5 5 6 6 6 7 7 7 8 9 9 9 9 9 9 10 11 11 11 11 12 12 12 12 12 12 12 12 11 11 11 11 11 11 11 11
7 6 6 6 5 6 6 5 5 5 5 5 5 5 5 6 6 6 6 7 6 6 5 5 5 5 4 4 4 4 4 3 3 3 2 2 1 0 0 1 1 2 2 2 2 3 3 3 3 3 3 4 4 5 5 6 6 7 7 8 8 8 9 9 9 9 10 11 11 11 11 11 11 11 11 11 11 11 11 11 11 11 11 10 10 10
7 7 6 5 5 5 5 5 5 5 5 5 5 5 6 6 5 5 5 5 4 3 2 2 3 3 2 2 2 2 3 2 2 2 1 1 0 -0 0 1 1 1 2 2 2 2 2 2 2 2 2 3 3 4 4 4 5 6 6 7 7 8 8 8 9 9 10 10 10 11 11 11 11 11 11 11 10 10 10 10 10 10 10 10 10 10
6 7 6 5 5 5 5 5 5 5 5 5 5 5 5 5 5 5 4 3 4 3 2 1 1 1 1 1 0 1 2 2 1 0 0 0 -1 -1 -0 0 0 1 1 1 1 1 1 1 2 2 2 2 3 3 3 3 4 4 5 6 7 7 7 8 8 9 9 10 10 10 10 10 10 10 10 10 10 10 10 10 10 9 10 10 9 9
6 7 5 5 6 6 6 6 5 5 6 6 5 5 5 4 4 5 4 4 4 3 3 3 2 0 0 1 -0 0 1 1 -0 -1 -1 -1 -1 -1 -1 -1 -0 -0 -0 -0 0 0 0 0 1 1 1 1 2 2 3 3 3 4 4 5 6 6 6 7 7 8 9 9 10 10 10 10 10 10 9 9 9 9 9 8 8 8 8 9 9 9
6 7 6 7 7 7 7 6 6 6 7 6 5 5 5 4 4 4 4 4 3 2 1 2 2 2 1 1 1 0 -0 -0 -1 -1 -2 -2 -1 -1 -1 -1 -1 -1 -1 -1 -1 -1 -0 -0 -0 -0 0 0 0 1 1 2 3 3 4 4 4 5 6 6 7 7 8 9 9 9 9 9 9 9 8 8 8 7 7 7 7 7 7 7 8 8
Height
752 757 762 761 760 758 756 760 761 762 764 764 767 768 769 770 764 756 750 748 750 751 754 756 751 748 755 760 758 755 756 759 760 763 764 765 767 768 770 771 772 774 774 774 776 777 778 779 780 781 781 782 783 784 784 787 792 794 795 797 800 802 803 804 804 805 806 808 809 811 813 814 815 816 817 818 819 820 821 821 822 823 823 824 824 824
753 760 761 754 755 756 757 763 764 764 764 764 769 768 768 770 762 752 749 749 749 749 756 761 753 751 758 760 760 758 758 759 760 761 763 764 766 768 768 770 771 772 774 774 775 777 778 779 780 781 782 782 782 782 782 784 789 792 794 796 798 801 802 803 804 804 805 807 808 810 812 814 815 817 818 819 820 820 821 822 823 823 824 825 825 826
760 760 753 751 759 761 762 766 764 763 764 766 771 770 766 766 761 753 749 751 752 748 754 760 755 753 759 760 761 762 760 759 760 761 762 764 766 767 767 768 770 772 773 775 775 776 777 778 779 780 782 782 782 783 783 784 787 790 792 794 797 799 801 802 803 804 805 806 808 810 812 814 815 817 818 819 820 821 821 822 823 824 825 826 826 827
764 757 750 754 761 760 761 766 765 764 765 766 768 767 763 763 762 756 750 752 755 753 755 756 754 755 757 759 761 762 761 760 761 763 764 766 766 766 767 767 769 771 773 774 775 775 776 776 778 779 781 782 783 783 783 784 786 788 790 792 795 798 800 802 803 805 805 806 808 810 812 814 815 817 818 820 820 821 822 822 824 824 825 826 827 828
758 752 752 756 758 756 758 763 765 765 765 765 764 763 759 756 757 755 754 755 755 757 758 754 756 758 755 758 761 760 761 762 763 764 766 768 768 768 769 768 768 770 771 773 773 774 775 775 776 778 780 782 783 783 782 783 785 787 789 791 795 798 800 802 803 805 805 806 807 810 812 814 816 817 819 820 821 822 822 823 824 825 826 826 827 828
752 750 752 753 755 757 756 758 761 761 764 763 759 756 753 750 752 753 755 756 755 758 762 761 765 767 757 755 761 762 761 763 765 765 766 768 769 769 770 769 769 769 770 771 773 774 775 776 777 778 779 780 781 782 782 783 784 786 788 791 795 799 800 802 803 804 805 806 807 809 811 813 816 818 820 821 822 823 823 824 824 825 826 827 828 829
749 749 751 750 753 757 756 756 756 757 763 763 755 753 753 750 751 751 751 755 760 763 767 766 767 773 764 753 761 767 763 765 767 765 765 766 768 768 769 768 768 769 769 770 772 774 775 776 777 777 778 779 780 781 783 785 786 789 791 792 796 798 800 802 803 804 805 806 808 809 811 813 815 818 820 822 823 824 824 825 825 826 827 828 829 830
746 748 751 749 750 756 755 752 752 755 758 757 753 753 752 748 749 752 750 754 763 764 765 766 763 770 771 759 762 768 763 764 766 766 766 765 765 766 766 767 767 767 767 768 770 772 773 774 775 776 777 779 781 784 787 790 792 794 795 796 798 798 799 801 803 804 805 806 809 811 813 815 816 818 820 822 824 825 825 826 826 827 827 828 829 830
744 744 745 744 747 752 748 743 747 750 749 749 753 756 752 750 752 754 753 756 767 767 763 767 767 771 776 766 763 767 763 762 763 763 764 763 764 765 764 765 766 765 766 767 768 769 771 772 773 775 778 782 787 790 792 795 797 799 802 805 804 799 798 800 802 804 807 808 810 812 814 816 817 819 821 822 824 825 826 827 827 828 828 829 830 831
743 741 739 741 744 744 739 742 747 744 742 747 755 757 756 759 760 759 759 758 765 770 768 772 774 773 777 772 766 767 765 763 762 761 761 761 761 762 763 763 763 765 765 766 767 768 769 770 773 778 783 787 790 792 794 798 800 802 806 808 806 801 799 801 803 805 808 809 811 813 814 816 818 820 821 823 824 825 826 827 828 829 829 829 830 831
740 740 739 738 738 737 735 745 751 746 746 749 751 753 755 759 760 761 767 763 766 775 774 777 778 773 777 779 774 770 768 768 767 761 758 760 760 758 760 761 761 763 765 766 766 767 768 771 776 782 785 788 790 792 796 801 804 806 807 807 805 803 803 804 805 806 808 809 811 813 814 816 818 819 821 822 823 825 826 827 828 829 829 830 830 831
741 739 740 734 733 735 735 743 751 750 750 749 747 752 758 764 765 766 770 769 775 783 777 780 783 774 774 780 778 774 770 771 772 763 757 762 763 758 758 759 759 762 764 766 766 767 768 772 779 784 785 787 789 790 793 796 801 804 804 803 803 804 805 806 807 808 808 809 811 813 815 817 818 819 819 820 822 824 825 826 827 828 829 829 830 831
741 737 738 734 731 732 733 742 750 749 749 748 749 756 766 776 779 779 783 783 785 783 778 783 784 775 773 774 776 776 771 770 772 768 765 766 764 760 759 759 759 761 763 764 765 766 769 773 780 784 784 786 786 786 787 788 790 794 796 796 799 802 804 805 807 808 809 809 810 813 815 817 818 818 819 819 821 823 824 825 826 827 828 829 830 831
745 741 737 733 732 730 731 740 748 748 748 748 750 755 767 782 788 793 801 801 793 782 781 786 781 775 775 772 772 774 771 769 770 770 768 766 764 761 762 762 762 764 765 766 768 770 773 777 780 782 782 782 783 784 785 785 785 789 793 797 799 801 803 804 805 806 807 809 810 812 814 815 817 817 818 819 820 822 824 825 826 827 828 828 829 831
754 751 738 732 733 730 729 733 736 740 746 751 753 753 759 769 776 787 792 790 788 785 786 786 781 779 776 772 772 772 770 771 770 769 767 765 764 762 764 767 768 769 769 770 773 776 780 782 782 782 781 780 781 782 783 785 787 790 795 799 799 801 803 805 806 805 805 806 807 809 812 814 815 816 818 819 821 822 823 825 826 827 829 829 830 831
760 753 735 732 734 729 729 732 731 736 746 758 759 753 756 755 758 780 792 787 786 786 787 787 784 783 777 771 772 771 770 771 771 769 766 766 766 764 766 770 771 772 773 772 772 774 780 786 786 784 780 779 780 781 781 785 790 794 795 795 797 801 804 805 804 803 803 803 805 808 811 813 815 816 818 819 820 822 823 825 826 828 829 830 831 832
758 749 735 734 733 729 731 732 730 733 744 757 759 753 757 754 753 774 795 798 791 784 790 795 787 783 780 773 771 770 771 772 772 771 768 766 766 766 767 768 769 771 774 777 775 771 774 781 786 786 782 779 779 780 781 784 791 794 792 792 796 800 801 801 800 800 801 803 805 808 810 812 814 816 817 818 820 821 823 825 826 828 830 831 833 834
750 746 738 736 734 731 733 731 731 734 738 748 752 750 755 759 757 764 780 795 795 787 791 798 792 787 784 778 773 771 772 774 774 773 770 767 764 765 767 766 766 769 773 779 780 775 773 774 779 784 784 780 778 780 782 785 790 792 790 791 794 796 796 796 797 799 801 803 804 807 809 812 813 815 816 818 819 821 823 825 826 828 829 831 833 834
746 747 742 739 738 735 732 732 736 739 739 740 742 744 751 757 761 765 774 784 790 794 795 796 799 795 782 775 772 770 772 773 774 774 772 769 767 767 770 768 767 769 773 778 780 777 775 773 774 780 784 782 780 782 784 786 789 790 789 790 793 794 794 795 797 799 800 802 804 807 809 812 813 814 815 817 819 821 823 824 826 827 829 831 833 834
746 749 747 740 740 739 736 737 742 743 743 742 742 747 751 755 760 765 771 773 777 793 799 794 795 789 775 772 769 765 769 771 773 774 773 773 772 771 772 771 769 771 775 779 780 777 775 774 774 777 782 783 781 783 785 786 788 789 789 791 792 793 793 794 796 798 800 802 804 806 808 811 813 813 815 816 818 820 822 824 826 827 829 831 832 834
745 750 751 743 741 743 744 746 747 744 744 744 745 750 753 759 764 765 772 777 774 782 792 792 791 781 770 771 768 763 767 770 773 775 774 775 774 773 774 773 773 775 778 779 779 777 777 776 776 778 781 781 781 783 784 786 788 788 789 791 792 793 792 793 796 797 799 802 803 806 808 810 812 813 814 816 818 820 822 824 826 828 829 830 832 834
741 747 750 747 746 749 750 751 751 747 744 743 746 752 755 759 762 762 774 786 778 777 785 785 782 775 770 772 769 768 770 771 775 777 776 776 776 775 776 776 777 779 779 780 779 779 779 778 778 779 780 781 782 784 785 785 787 788 790 792 792 793 793 793 796 797 799 802 803 806 808 810 812 813 814 815 817 820 822 824 827 828 829 830 831 833
738 741 747 753 754 754 752 750 751 752 749 746 750 760 762 758 756 756 766 777 778 784 790 784 777 772 772 776 774 772 773 772 774 776 776 778 777 777 779 778 780 781 780 781 781 782 782 780 780 780 780 782 783 784 784 785 787 788 790 792 792 793 794 794 797 798 800 802 804 806 808 810 812 812 813 815 817 819 822 824 826 828 829 830 831 832
737 742 751 758 757 753 748 746 749 752 751 750 755 764 766 763 761 759 763 767 772 780 783 780 780 773 770 777 777 773 772 771 773 776 777 779 779 779 781 781 781 782 782 783 782 783 784 782 783 783 782 783 783 784 785 785 787 789 790 792 793 794 795 796 798 799 801 803 805 806 808 809 811 812 813 814 816 819 821 823 825 827 828 829 830 832
738 746 752 760 766 763 758 754 753 752 754 757 763 768 768 769 768 766 768 768 768 777 777 773 776 774 772 778 777 773 772 772 774 777 778 781 780 780 781 781 782 783 783 784 784 784 785 784 785 785 784 785 784 785 786 786 787 789 790 792 793 794 796 797 799 801 802 804 805 806 807 809 810 811 812 814 815 818 821 822 824 825 827 828 829 831
741 753 751 755 767 771 768 765 761 758 761 764 765 765 768 772 768 763 766 764 765 780 781 769 768 772 774 778 777 776 776 775 776 778 779 782 782 781 782 782 783 784 784 785 785 786 786 785 786 786 786 786 786 787 787 787 788 789 790 792 793 795 796 797 799 801 803 804 805 805 806 808 809 810 811 813 815 817 820 821 823 824 826 827 828 829
747 761 759 752 756 759 761 764 764 761 762 766 764 760 764 773 770 765 765 763 766 779 779 771 771 773 777 783 783 782 783 781 781 782 781 783 783 783 784 784 785 786 785 786 787 786 787 786 786 787 786 786 787 788 789 790 790 790 791 792 793 795 797 798 799 801 803 804 805 805 806 807 808 810 811 812 814 817 819 821 823 824 825 826 827 828
744 760 766 761 760 762 763 765 765 761 761 765 763 761 765 770 768 763 763 768 773 774 774 778 780 777 782 793 793 791 791 787 786 787 786 786 786 785 786 786 786 787 787 788 788 788 788 788 788 788 788 788 788 789 791 792 792 793 793 793 794 796 797 798 799 801 803 805 805 806 807 808 809 811 812 814 816 818 819 821 822 823 824 825 826 827
744 760 768 767 767 770 769 767 766 766 769 771 769 768 769 767 765 763 769 780 778 767 769 780 783 785 794 802 801 799 798 795 794 795 792 790 790 788 787 788 789 790 791 791 792 792 791 791 792 791 791 791 790 791 792 793 794 795 795 795 796 796 797 798 799 801 803 804 806 806 807 808 809 811 812 814 816 818 819 820 821 821 822 823 824 825
748 762 769 768 770 773 770 768 770 770 772 776 779 781 778 774 775 776 782 793 787 777 783 786 786 797 806 805 803 803 800 799 799 798 796 795 795 792 790 791 792 793 794 795 795 796 796 796 796 795 796 796 795 795 795 795 796 796 796 796 797 797 798 799 800 801 803 804 806 806 807 808 809 810 812 813 815 816 817 818 819 819 820 821 823 824
747 762 769 767 773 780 775 773 775 772 772 778 785 789 786 781 782 784 789 796 789 788 798 792 787 801 808 804 806 805 800 800 799 800 802 802 801 798 794 795 796 796 797 798 799 799 799 799 798 798 799 799 799 799 799 798 798 798 797 798 798 799 799 800 801 802 803 804 805 806 807 808 809 810 811 812 813 815 815 816 817 818 819 820 822 823
749 763 770 767 774 783 781 779 780 776 776 781 784 789 790 785 785 790 797 802 796 791 793 787 788 802 807 805 807 805 802 803 804 805 807 806 805 804 802 802 802 802 802 802 802 802 802 802 802 801 801 801 801 801 801 801 800 800 799 799 800 800 801 802 803 803 804 805 806 807 808 808 809 810 811 812 813 814 815 816 817 818 819 820 821 823
756 759 764 766 772 780 784 784 783 778 776 780 786 796 801 798 797 799 803 810 810 802 792 786 794 806 808 807 808 807 806 807 809 811 810 809 809 808 807 807 807 807 807 806 806 806 805 806 805 805 805 804 804 803 802 802 802 801 802 802 802 802 803 804 804 805 806 807 807 808 809 809 810 811 812 812 813 813 814 815 816 817 819 820 821 822
760 757 762 767 767 776 785 786 783 780 778 787 800 806 803 801 801 802 806 813 814 809 802 800 806 811 810 809 810 810 811 812 814 815 814 813 812 810 810 811 809 810 810 810 809 809 808 808 807 806 807 806 806 806 805 805 804 803 803 803 804 804 804 805 806 806 807 808 808 809 809 810 811 811 812 813 813 814 814 815 816 817 818 820 821 822
758 759 767 771 770 778 786 783 779 783 789 799 809 808 803 804 805 805 810 815 813 810 810 809 810 811 810 811 812 811 813 814 814 815 815 815 815 813 813 813 812 812 813 813 812 811 810 809 808 807 808 807 807 807 807 807 807 806 806 805 806 806 806 806 807 807 808 808 809 809 810 811 811 811 812 813 814 814 815 816 817 818 819 821 821 823
756 759 767 775 779 782 782 779 781 792 803 806 806 805 804 806 805 800 801 810 813 813 813 812 812 812 811 811 811 811 812 812 811 814 816 817 816 816 816 816 815 815 815 815 815 813 812 811 810 810 810 809 809 808 809 810 810 810 809 807 807 808 808 808 809 809 810 810 810 811 811 812 812 813 814 814 815 816 816 817 818 819 820 822 823 824
757 758 761 771 783 786 788 797 805 808 809 806 803 806 807 807 807 803 802 810 815 814 814 813 811 811 810 809 810 812 811 809 811 815 818 818 818 818 818 818 817 817 817 816 815 814 813 812 812 812 812 811 810 810 811 812 812 812 811 809 809 809 810 810 811 812 813 812 813 813 813 814 814 814 815 816 816 817 818 818 819 820 821 822 823 824
761 761 758 764 783 794 795 805 814 808 801 802 805 809 810 809 811 808 805 810 814 814 816 815 811 811 810 807 809 811 808 809 815 820 820 820 820 819 818 818 818 818 817 816 815 815 814 813 814 814 814 813 812 811 812 813 812 812 811 811 811 811 811 811 812 814 815 815 815 815 815 815 816 816 816 816 817 818 818 819 820 820 821 822 823 824
765 769 765 763 779 791 783 785 798 800 799 807 811 810 809 810 811 807 803 807 813 816 817 816 814 815 813 810 810 809 807 812 822 824 821 821 821 819 819 819 818 818 818 818 817 816 816 816 815 815 815 814 813 813 813 812 812 812 812 812 812 812 812 812 813 814 815 815 815 815 815 815 816 816 816 816 816 817 817 818 819 819 820 821 822 823
771 775 773 768 777 786 779 782 800 807 809 814 815 809 810 812 809 803 800 806 815 818 818 817 816 815 816 814 812 810 810 816 822 822 821 822 821 820 820 819 818 819 819 818 818 818 817 817 816 816 816 815 815 815 814 813 812 812 812 812 812 812 813 813 813 813 813 814 815 814 814 814 815 815 815 815 816 816 816 817 817 818 819 820 821 822
784 786 787 786 789 792 788 791 807 815 815 815 814 810 809 808 805 802 805 813 819 819 819 820 817 817 817 815 813 814 817 819 820 821 822 822 821 820 820 819 819 819 819 819 819 818 818 818 817 817 817 817 817 816 815 814 813 812 813 813 812 812 812 812 812 812 812 812 813 813 813 813 813 814 814 815 815 815 815 816 816 817 818 819 820 821
794 795 798 799 800 803 802 801 808 815 816 815 814 811 806 803 805 810 816 821 821 819 820 821 820 819 820 818 817 819 819 820 821 822 822 822 821 821 820 819 819 818 818 819 819 818 818 817 817 817 817 818 817 817 816 815 814 813 813 812 811 811 811 810 810 810 810 810 810 811 811 811 811 812 813 813 814 814 814 815 815 816 817 817 818 819
800 800 804 807 807 808 808 806 807 811 816 816 813 811 809 809 814 819 821 821 821 821 822 822 821 822 822 821 821 821 820 821 822 822 822 822 822 821 821 820 820 819 819 819 818 818 818 817 817 817 816 817 817 816 816 815 814 813 812 811 810 810 809 809 808 808 808 808 808 808 809 809 810 810 811 811 812 812 813 813 814 815 815 816 816 817
802 801 804 810 811 805 804 810 815 817 819 817 812 813 817 818 819 821 820 820 821 822 822 822 823 824 824 823 823 823 822 822 822 822 822 822 821 821 821 820 820 819 819 819 818 818 818 817 817 816 816 816 816 815 815 814 813 812 811 810 810 808 807 807 806 806 805 805 805 806 806 807 807 808 809 809 810 810 811 811 812 813 813 814 815 815
805 804 803 810 817 813 810 817 823 822 822 820 816 818 821 820 820 821 821 821 822 822 823 823 823 823 824 825 824 823 823 823 823 823 823 822 822 822 821 821 821 820 819 819 818 818 817 816 816 815 815 815 815 814 814 813 812 811 810 809 809 808 807 806 804 804 803 803 803 803 803 804 805 805 806 807 807 808 809 809 810 811 812 812 813 813
808 807 806 812 819 819 818 821 823 822 822 822 820 820 821 820 821 822 821 821 822 822 823 823 823 823 824 824 824 823 823 824 823 823 823 822 822 821 821 821 821 820 819 819 818 817 816 815 815 814 813 813 813 813 812 811 811 810 809 808 807 807 806 805 804 803 801 801 801 801 801 802 802 803 804 805 805 806 807 807 808 809 810 811 811 812
807 807 809 814 817 817 819 822 823 822 823 822 821 821 821 820 821 822 821 822 823 823 824 824 824 825 825 825 825 825 824 825 825 824 824 823 822 821 821 820 819 819 819 818 817 817 816 815 814 813 812 812 811 811 811 810 809 808 807 807 806 805 804 804 803 802 801 800 800 800 800 800 801 801 802 803 803 804 805 805 806 807 807 808 809 809
807 805 810 816 817 818 820 822 822 822 823 823 822 822 821 821 822 823 823 823 824 825 826 826 826 826 827 827 827 827 826 826 826 825 825 824 823 822 821 820 819 818 817 817 816 816 815 814 813 812 811 810 810 810 809 808 807 807 806 805 804 803 802 802 801 800 800 799 799 799 798 799 799 800 801 801 801 802 803 803 804 805 805 806 807 807
809 807 812 817 820 822 823 822 823 824 823 823 823 822 822 822 823 823 824 825 825 825 826 826 826 827 827 827 827 827 826 826 826 826 825 824 823 822 821 820 819 818 816 816 815 814 813 812 811 810 809 808 807 807 807 806 805 805 804 803 802 801 800 799 798 798 797 797 797 797 797 797 797 798 799 799 799 800 800 801 802 802 803 804 804 805
810 811 816 819 818 819 819 819 821 821 820 821 822 821 822 823 823 823 824 824 825 825 826 826 827 827 827 827 827 827 827 826 826 826 825 825 824 822 821 820 818 816 815 814 813 812 811 810 809 808 806 805 805 805 804 803 803 802 802 801 800 798 797 796 795 795 795 795 795 795 795 795 795 796 797 797 797 798 798 799 799 800 800 801 802 802
810 811 813 813 813 814 814 815 818 818 817 819 820 820 822 823 823 824 824 825 826 826 826 827 827 827 827 827 826 826 826 826 826 825 825 824 823 821 820 819 817 815 814 812 811 810 809 807 807 806 804 803 803 802 801 801 800 799 799 798 797 796 794 793 793 792 792 792 792 792 793 793 794 794 795 795 795 796 796 796 797 797 797 798 799 799
Wind_Speed
4 3 1 4 5 6 7 6 6 5 4 4 3 3 4 3 4 6 5 6 1 4 1 4 6 6 6 7 6 7 8 8 9 7 8 8 7 7 6 6 6 6 5 5 9 13 14 16 18 19 20 19 19 22 24 21 17 14 14 16 17 18 18 17 17 17 17 16 14 12 10 10 10 9 9 8 6 5 4 4 4 5 5 5 5 6
5 3 5 8 9 8 6 5 5 4 3 2 2 2 3 3 4 7 4 6 3 3 2 0 5 3 4 3 3 6 8 8 8 9 10 10 7 6 7 8 8 6 4 5 7 10 13 14 16 18 17 19 23 25 26 25 21 18 17 18 19 20 20 18 18 18 18 16 14 13 12 12 12 10 9 8 6 4 3 3 4 4 4 4 4 6
4 2 10 9 6 5 4 4 5 3 3 3 2 2 2 3 3 7 5 5 4 4 1 1 5 2 5 3 3 3 3 2 3 4 7 9 9 7 9 9 8 7 6 5 6 8 13 14 15 17 16 16 21 23 22 23 23 23 22 22 22 23 21 19 18 18 17 15 13 12 12 13 12 11 10 9 7 5 4 4 4 4 3 2 2 4
0 5 8 5 7 6 2 3 6 4 2 2 3 3 2 3 1 2 4 5 5 3 3 4 5 3 6 2 2 2 1 2 4 3 3 6 7 7 7 7 7 8 8 7 6 8 12 14 16 17 16 15 17 19 19 21 24 26 27 26 25 25 22 20 19 18 16 15 13 11 13 14 12 12 12 10 9 6 5 4 4 5 4 3 2 5
5 6 3 6 7 7 4 3 6 5 2 3 3 5 3 4 4 4 3 5 5 4 4 5 5 4 5 3 2 2 2 3 3 5 5 4 4 3 4 5 6 7 7 8 8 8 9 13 16 17 17 16 17 20 21 23 26 28 29 29 27 26 22 20 21 19 16 16 14 14 16 15 13 13 13 12 10 7 6 5 5 6 5 5 5 6
7 6 5 6 4 5 5 4 5 7 2 4 4 8 7 4 4 3 3 5 4 5 4 5 5 3 6 4 3 2 2 3 1 5 6 5 4 4 5 6 5 5 6 7 7 6 7 9 13 16 17 18 20 22 23 25 27 29 30 29 27 25 22 21 21 19 17 16 17 18 19 17 15 15 13 11 10 8 7 7 7 7 7 6 7 6
4 2 3 5 5 5 4 3 5 7 6 1 5 8 7 5 4 2 3 4 2 0 2 3 5 1 6 4 3 4 1 2 1 4 6 5 5 5 6 6 6 6 6 6 6 6 7 9 12 14 18 20 22 23 24 25 25 26 27 28 27 25 23 23 21 18 17 18 18 18 18 17 16 16 13 11 9 8 8 8 9 8 8 7 7 7
4 2 3 3 5 5 4 3 6 8 8 2 5 7 8 6 5 4 5 4 1 2 2 5 5 4 2 4 5 4 2 2 2 4 5 5 6 6 6 6 6 7 7 6 6 6 7 10 13 16 19 22 20 18 17 16 13 11 13 19 24 25 24 22 21 19 19 18 18 17 16 16 16 15 13 11 9 9 9 10 10 9 8 8 7 7
3 4 3 4 5 2 4 5 7 10 5 5 5 7 6 5 4 4 6 3 1 2 2 6 4 4 2 5 5 5 3 4 6 6 6 6 6 7 7 7 7 7 7 7 7 7 8 11 16 18 17 14 9 6 7 11 12 10 10 12 18 23 25 23 22 21 19 18 17 17 17 17 16 14 14 13 11 11 10 10 10 8 7 7 6 6
2 4 6 7 4 4 5 4 9 10 4 4 7 6 5 5 5 5 5 3 3 3 3 6 3 3 3 5 4 5 3 4 6 5 6 6 7 7 7 7 7 6 6 6 7 7 9 13 15 11 4 6 11 16 19 16 10 11 14 17 18 20 23 23 22 22 20 18 17 18 19 19 18 16 16 15 14 13 11 10 9 8 6 5 6 7
3 2 3 4 3 6 4 2 3 4 4 6 6 6 7 6 5 4 3 4 4 2 5 6 2 3 1 4 1 1 2 4 6 6 6 5 6 8 8 7 8 7 6 6 6 6 9 12 8 9 20 27 28 25 22 16 11 13 17 20 18 17 19 20 21 21 21 20 18 18 19 18 18 18 18 18 16 14 12 10 9 7 6 6 6 8
6 3 2 2 3 4 5 5 3 3 3 5 5 5 5 4 5 4 4 4 4 2 6 5 2 4 3 3 3 4 6 6 5 8 8 4 5 7 8 7 7 6 5 6 5 5 7 6 10 23 31 31 27 21 20 18 16 16 20 21 20 19 18 17 18 19 19 19 18 17 17 16 15 15 16 17 17 15 12 11 10 8 8 7 7 8
4 3 4 5 2 4 6 4 2 5 5 5 5 5 5 2 3 1 3 1 2 4 3 3 2 2 3 4 4 5 7 6 5 7 9 7 7 7 6 6 6 6 6 6 5 5 5 5 13 23 25 21 18 20 23 22 23 28 29 27 26 24 21 20 19 19 18 18 17 17 17 16 15 14 13 14 15 14 12 11 11 10 8 8 8 7
3 5 4 3 2 2 6 6 2 1 1 4 5 5 4 3 2 1 3 1 2 4 2 5 3 0 3 3 2 4 6 6 6 5 5 5 4 2 2 3 4 4 3 2 2 3 3 7 14 20 19 16 15 17 21 24 30 33 28 25 25 24 22 22 21 20 18 17 17 18 19 18 16 14 13 13 14 13 12 11 11 9 8 7 6 6
2 3 3 3 1 0 3 5 6 5 3 3 4 5 5 4 4 3 3 2 3 2 2 4 2 2 2 2 3 5 5 5 5 2 4 4 4 7 7 7 6 6 6 6 7 8 9 8 15 20 17 16 16 17 21 26 27 24 19 19 22 22 21 20 20 20 19 18 19 20 21 21 18 16 14 13 13 12 12 11 10 9 7 6 5 5
4 4 6 4 1 2 2 2 5 6 3 1 2 5 3 4 5 3 2 4 4 2 0 1 2 2 3 3 5 4 3 5 4 3 8 8 7 9 9 8 7 6 7 7 8 10 10 9 8 14 15 15 15 17 22 25 20 17 18 23 22 18 18 19 20 21 20 20 21 21 22 22 20 17 15 14 13 12 12 11 10 9 7 6 5 4
3 4 6 3 1 1 2 3 3 3 3 1 2 3 4 4 7 6 2 1 3 4 1 1 2 4 2 2 4 4 5 5 5 4 7 8 8 9 8 7 6 5 5 5 5 7 9 11 6 8 13 16 16 18 21 22 20 20 23 25 21 16 18 23 25 23 21 21 21 22 23 22 21 19 16 15 14 13 12 11 9 8 7 6 5 4
4 2 5 1 1 2 1 3 4 2 4 4 3 5 3 3 5 5 3 3 4 3 3 2 1 3 1 1 3 3 2 1 3 4 3 5 8 8 6 5 6 5 4 3 3 2 6 12 11 7 12 17 18 18 19 21 24 25 23 23 23 21 24 28 27 24 22 21 21 22 23 23 21 19 17 16 14 13 13 11 9 8 7 6 5 5
4 1 6 2 2 3 5 6 4 5 4 4 4 3 4 3 2 2 3 2 2 2 2 2 1 3 3 3 3 3 5 4 2 3 3 2 4 5 3 3 5 6 5 2 3 1 2 8 14 11 13 16 14 13 15 21 26 25 22 23 24 24 26 28 26 23 21 21 21 22 23 23 21 19 18 17 16 14 14 13 10 8 7 5 5 6
3 2 4 3 1 2 5 4 2 2 4 4 3 3 2 3 4 3 2 3 4 4 2 1 2 2 5 5 5 6 7 6 3 1 1 1 2 4 2 2 4 5 4 4 4 3 3 5 13 15 15 14 11 10 12 18 24 25 25 26 24 22 25 26 24 22 19 20 22 23 23 23 22 21 20 19 17 15 14 13 12 10 8 6 5 6
3 3 3 4 4 2 2 1 3 4 2 3 2 1 1 2 3 2 2 2 4 5 3 2 0 5 5 3 5 6 7 6 4 3 3 2 2 4 3 3 4 4 3 4 4 4 4 6 10 13 14 12 10 9 10 13 17 21 24 24 21 20 22 23 23 21 19 19 21 22 22 23 23 23 22 20 18 16 15 14 14 13 10 7 8 9
2 3 3 1 4 2 1 3 3 4 5 5 3 2 3 3 4 4 2 1 2 4 4 4 2 6 5 2 4 5 5 5 4 3 4 3 4 4 4 5 4 4 3 3 4 4 4 6 9 10 10 10 9 8 8 7 10 14 17 17 17 18 20 20 20 20 19 17 17 19 21 21 23 23 21 20 18 17 16 15 15 15 12 10 11 13
3 4 3 1 1 1 3 3 3 1 3 7 4 2 3 3 3 5 4 3 2 2 2 4 1 5 5 3 4 4 4 5 4 4 4 4 4 4 4 5 4 4 5 4 5 4 4 6 9 9 8 7 6 5 6 6 7 10 11 12 14 15 17 17 17 19 19 16 15 16 17 18 20 21 20 19 18 17 17 16 16 14 12 11 13 15
1 4 4 1 3 4 5 4 5 4 5 6 4 3 3 1 2 5 5 3 4 3 2 3 0 5 5 4 4 3 4 5 4 4 4 4 4 4 5 5 5 5 5 5 5 4 5 7 8 9 8 6 6 5 5 5 6 8 8 9 11 13 14 14 14 15 16 16 15 15 15 15 16 17 17 17 17 17 16 16 15 14 12 12 13 14
1 2 4 3 2 3 3 4 5 5 4 4 2 3 2 3 4 3 2 3 3 4 4 4 3 5 5 4 4 3 4 5 4 4 4 3 4 5 5 4 5 5 5 5 5 5 5 6 7 8 8 8 8 6 5 4 4 6 7 8 9 10 11 12 12 13 13 14 13 13 14 14 15 14 14 15 16 16 16 15 14 15 14 12 11 10
2 2 3 5 4 4 3 2 3 1 2 2 2 4 4 4 3 1 2 4 2 3 4 5 4 5 4 6 7 6 5 5 4 4 4 2 3 4 4 4 4 4 5 6 5 5 4 5 6 8 9 9 10 8 6 5 4 5 7 8 8 8 8 10 12 12 11 11 11 11 12 13 14 14 14 15 15 16 16 14 11 12 12 10 9 9
4 3 2 5 5 5 6 5 4 3 3 2 2 5 5 3 2 3 4 2 4 4 2 3 5 3 3 7 7 7 6 5 5 5 4 4 5 4 3 3 4 3 4 4 4 5 4 4 5 7 9 10 11 10 8 7 6 6 8 9 9 9 8 9 12 13 11 10 10 10 11 12 12 12 13 15 15 14 14 12 9 8 9 9 9 9
5 3 3 4 3 1 4 2 3 2 5 4 4 3 4 4 5 5 3 1 4 6 2 6 2 5 1 6 7 7 6 5 5 6 5 4 4 4 4 4 4 4 3 3 4 4 4 4 4 5 8 10 12 13 11 9 8 8 8 9 10 11 9 8 12 14 13 11 11 11 11 11 10 10 11 12 11 9 10 11 10 10 10 9 8 10
6 2 1 3 5 4 4 4 4 4 4 2 4 3 3 4 5 4 1 2 2 5 5 4 5 5 2 5 6 6 5 3 4 5 4 4 5 5 5 5 5 4 5 5 5 4 4 3 2 3 6 8 10 12 13 12 10 9 9 9 10 10 9 9 12 14 13 12 11 10 10 10 10 9 8 8 8 8 10 10 10 11 10 9 9 11
4 2 1 4 5 5 5 5 5 5 5 5 6 4 2 4 6 5 2 1 0 2 3 7 10 6 3 4 5 5 3 2 4 6 7 7 6 5 5 6 5 5 5 6 6 6 5 5 6 5 4 5 7 8 10 11 12 11 10 9 9 9 8 9 11 12 12 11 10 10 10 10 10 8 6 7 7 7 7 7 8 8 7 7 7 9
4 2 1 4 5 4 5 4 4 5 7 3 4 5 3 4 6 4 3 2 2 3 4 7 10 6 3 3 4 4 4 6 9 9 9 8 7 6 6 6 6 6 6 6 5 5 5 6 7 7 7 7 6 6 6 7 10 12 12 11 10 9 8 8 9 9 9 9 9 9 9 9 9 8 8 8 8 8 7 6 6 5 4 4 5 5
4 3 1 4 5 1 2 3 5 6 8 5 1 4 5 3 4 3 2 2 1 3 5 6 6 3 2 3 4 6 8 11 11 9 8 8 7 8 8 7 7 6 6 6 6 7 7 6 7 9 10 10 8 7 7 6 7 11 13 13 13 12 11 11 11 11 11 11 11 11 10 10 9 10 10 11 11 11 10 10 9 9 8 7 6 5
2 4 3 3 4 3 1 2 4 5 6 2 2 2 3 2 4 4 4 4 3 2 5 4 4 3 2 2 6 9 11 11 10 8 7 7 8 8 8 7 7 7 7 7 7 7 7 8 10 12 14 14 14 12 10 7 6 9 11 12 12 12 12 12 13 13 13 13 13 12 11 11 11 11 13 14 14 14 13 13 12 12 11 11 10 9
2 4 3 2 4 4 2 2 3 3 2 3 5 3 1 2 5 6 4 4 5 3 3 3 4 4 3 5 8 9 9 8 7 6 6 6 6 8 8 8 7 7 7 7 7 7 8 11 14 16 18 19 19 18 16 13 10 8 8 9 9 9 9 9 10 11 11 11 12 12 11 11 12 13 14 15 15 15 14 13 13 12 11 10 9 9
3 4 2 1 4 4 0 4 4 2 4 3 4 3 2 5 7 10 8 4 5 5 4 5 6 5 5 5 6 8 8 7 7 8 9 8 6 7 8 8 8 7 6 6 6 7 10 13 15 17 18 18 19 18 18 18 16 14 12 11 10 9 9 8 8 8 9 9 9 10 10 10 11 12 13 13 13 13 12 12 10 9 8 7 7 7
4 3 2 2 3 3 2 3 3 3 3 3 4 4 2 2 3 7 7 6 6 5 3 4 4 2 2 2 1 2 3 4 7 10 10 9 8 7 8 7 7 7 7 7 7 7 9 11 13 14 14 13 14 15 14 14 13 13 14 14 14 14 12 12 12 11 10 10 10 10 10 11 11 12 11 11 11 11 11 10 9 8 7 6 6 5
5 3 2 2 1 3 4 2 1 3 4 2 2 1 0 1 1 3 4 2 4 3 1 4 3 3 2 2 3 2 2 3 7 8 8 8 8 7 7 7 8 9 10 12 13 13 12 10 11 12 12 11 9 7 7 7 6 7 10 11 11 12 12 13 13 11 10 10 10 10 11 11 12 12 12 11 11 11 11 10 10 9 8 7 6 5
4 2 3 3 2 3 5 3 1 3 2 4 3 2 1 2 4 4 5 1 4 4 1 4 4 4 4 4 4 3 3 6 6 5 6 7 7 6 7 9 11 12 14 16 18 19 18 15 13 13 14 13 11 7 7 8 4 2 5 7 6 4 5 6 5 3 2 4 4 4 4 6 7 9 10 10 11 10 10 10 9 9 8 6 5 4
6 3 3 4 2 2 5 4 2 2 3 4 4 5 5 2 4 4 5 1 3 3 3 3 5 4 4 4 4 3 4 5 2 3 5 5 6 6 6 8 10 13 14 15 16 17 18 16 15 15 17 17 16 14 11 8 7 6 6 5 3 1 2 2 3 4 4 4 5 5 4 3 3 4 5 6 7 7 7 7 7 7 6 5 4 3
6 5 3 4 2 2 4 3 2 2 2 2 3 6 6 1 4 6 2 4 3 3 3 3 5 4 3 4 4 5 5 3 3 3 4 4 5 5 5 7 9 11 13 15 15 14 15 16 15 16 17 16 16 16 13 11 9 9 10 11 9 7 7 8 8 8 7 8 8 8 7 6 5 3 2 3 4 4 4 4 4 3 2 2 2 2
4 4 2 3 3 3 4 3 0 2 3 2 4 7 5 1 4 3 4 6 1 4 3 3 4 3 4 4 4 4 3 3 3 2 3 4 4 4 7 9 10 11 12 14 14 14 14 15 14 14 14 13 14 14 13 11 9 9 10 12 13 12 11 12 14 14 13 13 12 11 9 9 8 7 7 7 6 4 4 3 2 2 1 0 1 1
3 3 2 2 2 2 3 3 1 1 2 3 4 6 4 2 3 3 4 3 2 2 2 3 3 3 4 5 4 2 0 2 2 2 4 4 3 4 7 10 11 13 14 13 13 14 14 14 13 13 12 12 12 13 12 11 9 9 9 11 13 14 14 15 15 16 17 17 16 14 13 13 12 11 11 11 9 7 7 6 5 5 4 3 2 2
1 1 2 1 1 1 2 3 2 2 3 5 4 4 4 2 4 3 1 1 2 2 2 3 3 2 3 3 3 2 3 4 4 4 4 4 4 5 7 9 10 11 13 13 13 14 14 15 14 13 13 12 12 13 13 12 11 11 11 11 11 13 15 15 15 16 17 18 18 18 18 16 15 14 14 13 11 10 10 9 8 8 6 5 5 4
2 2 2 1 1 1 2 1 2 3 3 5 2 2 2 1 2 2 1 2 2 2 2 3 2 2 1 1 3 3 3 4 4 4 5 5 5 6 8 9 10 11 11 12 13 13 14 14 14 14 13 12 12 12 13 13 13 14 13 12 12 13 14 14 15 17 19 19 19 19 19 18 17 16 15 14 13 12 12 11 10 9 8 7 7 6
2 2 3 1 1 2 2 2 2 2 2 4 4 4 3 2 2 2 2 2 1 0 1 1 2 2 1 1 2 2 2 3 4 4 4 5 5 6 8 9 11 12 12 13 13 14 14 15 15 16 15 14 12 12 13 14 15 16 16 15 14 15 15 15 15 17 19 21 21 21 21 20 19 18 17 15 14 13 12 11 11 10 10 9 9 9
0 2 3 3 3 3 4 3 2 1 0 1 2 2 3 3 2 3 4 3 2 2 1 1 2 3 3 2 3 3 3 4 5 5 5 5 5 7 10 11 11 12 13 13 14 15 15 16 16 16 16 16 15 14 14 14 15 17 19 18 18 18 17 16 16 15 15 16 17 18 19 19 19 18 17 15 14 13 12 11 11 11 10 10 11 11
2 1 3 3 3 3 2 2 2 2 1 1 2 2 2 2 1 2 3 3 2 1 1 2 2 2 3 4 3 3 5 5 5 5 5 5 6 8 11 12 13 14 14 13 13 15 15 16 16 16 16 16 16 15 15 15 16 17 18 19 20 21 20 19 18 16 14 12 12 13 14 15 16 16 16 15 14 13 13 12 12 11 11 11 12 12
1 2 3 3 2 2 2 3 2 1 2 2 1 2 2 1 1 2 1 2 3 3 2 3 3 2 2 3 2 1 3 4 4 4 5 5 6 9 11 13 14 15 16 16 16 16 16 16 16 16 16 17 17 17 16 16 16 17 18 18 19 21 22 21 19 18 17 15 13 13 14 14 15 15 15 15 14 13 13 13 13 14 14 14 14 14
1 2 1 2 3 2 1 1 1 2 3 4 3 2 4 3 2 2 2 3 4 4 4 5 4 3 3 2 1 1 3 4 4 4 5 5 6 9 12 14 16 17 17 18 19 18 18 18 18 18 19 20 20 20 20 19 18 17 18 18 19 21 23 23 21 20 19 18 18 17 16 16 16 16 15 15 14 14 14 14 14 15 16 16 16 16
2 2 1 3 4 1 2 3 4 3 2 4 4 4 4 3 3 3 2 3 4 3 3 4 4 4 4 3 2 2 2 4 5 5 5 6 8 11 14 16 17 17 18 19 19 19 19 19 20 20 21 21 21 22 23 23 22 19 17 18 19 21 23 24 23 21 21 20 20 19 18 17 17 16 16 15 15 15 15 15 15 16 17 17 17 18
2 3 3 4 4 3 5 5 5 4 2 4 5 4 3 2 4 4 3 3 2 1 2 3 2 3 3 3 4 3 3 4 6 6 6 7 10 13 15 16 17 18 19 19 19 19 19 19 19 20 20 21 20 21 23 25 25 21 18 18 18 19 20 22 22 22 22 22 21 20 19 18 17 16 15 15 15 15 15 16 16 17 18 19 19 20
Wind_Direction
93 99 199 204 209 217 212 187 168 169 132 111 131 163 211 225 271 270 270 281 235 116 243 213 175 200 203 186 171 153 146 152 159 158 158 162 171 180 178 169 176 195 193 162 179 194 199 199 199 199 196 196 196 195 196 197 201 203 193 198 206 205 202 192 181 177 174 170 162 155 147 139 136 137 137 136 139 132 122 119 114 112 106 98 99 111
62 105 232 223 207 205 200 178 145 131 99 67 144 197 263 222 244 264 263 306 314 104 338 314 139 205 231 204 204 159 156 169 170 170 171 169 172 183 190 185 182 185 171 150 171 190 198 199 200 202 200 197 197 198 198 194 198 206 199 198 206 207 202 196 186 178 174 167 159 153 146 141 138 139 143 145 149 148 143 138 132 125 109 89 89 114
29 234 246 229 184 154 142 143 132 127 112 82 128 155 267 243 269 287 282 321 347 86 356 78 115 301 295 256 228 188 168 170 156 173 177 175 178 187 194 193 186 176 174 175 172 186 198 199 197 200 206 209 204 200 197 191 192 200 201 199 204 205 200 197 191 181 170 162 160 155 149 149 147 148 154 160 166 172 171 158 150 144 129 101 95 134
139 252 249 200 143 135 127 126 114 101 113 132 139 134 257 259 110 301 299 332 349 64 115 123 91 337 324 357 165 188 324 78 87 107 160 190 194 202 203 196 191 182 182 187 181 187 195 197 197 199 207 215 211 203 195 189 189 193 197 199 200 201 198 196 190 180 170 163 164 161 157 158 156 158 164 168 173 179 178 162 152 148 139 132 134 147
222 239 188 122 140 159 165 159 134 137 234 264 185 161 227 251 184 213 295 344 345 20 74 83 46 342 343 8 198 210 59 77 93 122 146 203 205 208 218 206 201 191 187 193 193 193 193 196 197 200 206 207 206 205 197 192 192 193 195 197 196 195 193 190 185 179 173 168 166 162 159 159 158 159 165 170 172 174 171 153 136 130 126 130 137 146
248 241 149 135 167 172 165 189 182 167 180 307 242 193 197 204 189 222 334 25 34 10 15 64 63 322 323 326 256 279 71 100 124 152 164 193 188 184 205 204 198 190 192 199 198 193 192 197 199 202 206 203 204 206 200 195 196 195 193 191 189 188 184 181 181 180 179 174 170 166 163 162 160 160 167 174 172 172 165 147 133 124 120 125 133 144
248 232 129 150 158 145 153 222 224 165 127 318 246 191 173 157 146 141 53 57 88 314 334 69 112 215 315 317 300 324 33 125 162 188 190 190 187 198 208 205 195 189 192 195 194 189 186 191 196 203 207 206 206 205 200 196 194 192 188 184 182 179 175 177 180 184 185 178 173 170 169 170 170 168 172 179 176 171 162 147 140 132 123 121 124 135
192 137 71 105 112 122 150 240 225 150 122 227 228 158 146 153 162 140 93 83 174 203 330 14 93 122 305 283 298 347 39 329 282 224 223 209 197 203 208 208 202 196 189 183 190 192 189 193 200 209 211 209 207 205 200 188 175 167 161 164 171 172 173 179 184 188 187 180 172 169 169 172 176 176 175 177 172 165 159 151 146 138 130 124 120 128
191 167 174 132 96 138 198 217 189 151 139 233 196 138 136 144 145 115 97 91 34 89 315 330 32 102 255 279 317 13 44 312 282 241 240 232 212 207 207 209 206 203 194 182 186 191 195 201 204 211 215 213 207 181 134 109 96 90 110 149 171 174 176 181 186 186 184 179 172 169 171 172 173 175 171 170 167 162 161 157 149 142 134 127 124 130
235 208 191 143 125 210 222 216 178 163 172 193 141 104 73 73 72 70 91 101 45 64 233 291 353 102 256 291 344 26 32 298 279 259 243 231 218 205 200 207 204 200 199 188 184 188 198 207 210 213 190 95 91 92 90 91 109 137 161 183 189 182 180 182 184 184 180 179 178 177 178 174 169 169 166 166 167 167 167 163 154 147 139 133 132 138
291 285 179 146 172 197 176 117 165 163 138 130 108 71 52 36 30 42 51 77 66 4 250 265 299 118 220 285 297 30 292 269 274 280 267 236 221 206 193 201 201 193 198 188 177 180 193 204 192 108 91 91 91 89 88 97 127 159 182 200 203 190 183 182 183 183 182 182 186 188 185 178 171 170 170 170 172 174 175 174 166 158 150 142 137 141
336 341 239 241 209 160 110 80 50 18 74 103 85 77 78 11 10 31 357 40 85 267 256 259 269 132 167 250 239 258 273 265 255 266 272 262 238 223 198 190 189 181 183 176 171 173 178 172 113 102 103 103 105 109 119 132 146 171 195 208 210 202 191 185 185 186 187 188 193 197 193 188 183 181 181 180 181 183 182 181 176 167 159 152 149 151
319 259 273 305 253 148 110 95 44 5 31 79 85 89 96 19 13 37 314 9 147 245 264 325 343 163 211 231 223 260 281 280 265 262 272 274 258 242 207 179 167 163 172 173 172 168 158 125 109 115 120 122 127 139 152 163 173 183 194 201 203 201 195 192 192 192 194 195 197 202 201 199 197 197 196 191 190 190 190 189 186 177 168 163 163 167
299 300 318 325 284 157 124 130 156 300 55 127 133 123 121 104 79 200 265 322 234 247 303 346 347 249 270 264 232 272 287 289 292 287 283 276 252 201 106 112 115 109 109 106 91 82 75 93 116 130 141 147 152 155 161 175 181 181 188 198 200 200 198 197 196 195 198 199 202 207 208 206 205 206 205 200 196 194 195 197 195 188 180 171 167 171
173 306 278 194 233 233 147 156 161 152 138 168 160 127 139 154 141 186 215 179 204 239 328 328 325 156 204 267 279 284 295 310 315 350 56 46 64 83 69 54 58 59 58 60 57 45 33 74 127 144 156 162 164 161 166 180 180 166 167 193 204 203 201 200 199 199 200 204 207 208 209 209 208 209 208 202 200 199 198 198 198 196 193 185 171 166
146 234 258 259 247 157 169 186 138 115 99 245 142 109 148 182 140 130 175 169 165 143 68 274 229 200 210 276 304 312 345 358 355 46 75 69 66 78 76 66 63 61 64 72 78 73 53 52 121 160 169 171 166 163 173 180 170 149 166 194 201 199 200 204 206 206 206 208 208 208 209 208 207 207 207 203 202 204 203 201 202 203 205 203 188 174
132 249 283 313 325 115 165 187 145 131 165 184 130 159 212 171 118 109 134 41 80 125 199 255 262 301 338 315 317 360 24 11 6 40 86 95 88 86 87 89 89 76 61 46 51 87 93 79 92 182 184 179 181 183 182 174 164 172 192 198 191 190 202 209 212 213 210 207 206 208 209 208 206 207 209 206 204 206 207 206 207 212 218 220 212 204
145 250 298 6 113 332 3 113 68 48 125 127 176 197 184 105 95 104 113 21 50 144 255 328 245 285 3 176 298 354 47 359 345 356 60 106 104 103 115 125 119 99 80 54 7 30 101 103 112 175 206 197 191 189 179 166 167 182 200 198 189 195 208 211 213 214 210 206 206 207 208 207 208 210 211 210 208 208 208 208 209 214 222 227 226 227
119 213 294 291 175 313 360 72 59 353 47 118 171 161 113 123 135 96 121 131 115 158 267 329 315 240 201 212 248 207 197 205 250 339 12 66 96 98 107 125 120 105 99 152 214 224 94 106 118 151 214 217 195 176 165 164 170 181 198 200 195 204 213 214 213 210 209 208 207 208 209 211 212 211 210 209 208 210 211 211 210 209 213 218 227 236
95 135 267 286 261 331 8 61 148 305 9 52 85 60 49 129 152 156 140 148 146 153 207 290 357 260 226 215 205 208 215 208 201 213 54 44 82 99 107 105 105 109 127 173 191 145 99 100 121 151 197 211 189 158 151 164 175 186 197 200 199 208 214 214 212 210 210 209 208 209 210 214 216 212 209 208 209 214 216 216 215 210 206 206 223 240
73 119 209 289 332 30 59 18 196 187 139 76 70 65 32 73 120 147 87 86 128 138 170 172 254 265 253 207 198 223 223 203 191 170 146 129 88 94 93 81 82 89 122 142 129 113 111 106 121 153 181 185 171 154 142 157 178 189 198 201 205 212 213 213 211 210 211 208 207 210 211 215 217 212 209 208 211 218 221 223 224 222 217 214 230 244
122 130 175 292 5 60 194 287 277 214 174 140 128 148 147 128 126 124 106 302 111 121 163 161 188 264 264 211 223 240 209 183 178 163 153 134 107 90 72 72 87 97 96 89 84 89 105 107 119 143 162 166 164 153 140 147 175 188 196 200 204 212 216 216 212 211 213 211 208 210 213 215 215 212 210 210 214 220 221 223 227 229 230 229 238 250
146 110 104 60 18 221 254 289 330 319 115 105 98 103 121 121 110 123 169 218 112 91 143 125 132 266 266 257 261 248 179 153 154 156 155 138 116 104 99 99 105 106 94 83 77 67 70 92 111 125 137 155 156 138 135 139 152 171 185 191 194 202 209 212 212 212 214 213 210 209 210 213 215 215 214 214 216 216 214 217 223 229 236 239 244 254
77 89 84 30 313 312 307 328 356 13 61 69 46 51 82 37 78 137 173 171 134 150 141 96 148 262 277 301 293 243 148 114 101 115 132 140 125 116 122 119 110 104 98 99 98 87 84 89 95 102 109 117 115 113 128 135 140 152 163 177 186 195 200 203 203 204 206 209 210 208 207 209 214 217 216 215 216 213 210 212 219 230 243 250 253 261
33 83 102 96 23 347 338 342 345 351 33 68 33 2 40 57 62 104 130 80 109 186 153 129 205 251 278 329 2 36 91 88 71 78 99 129 130 121 119 106 104 111 111 107 99 91 95 97 91 91 94 97 99 103 113 127 143 151 156 168 176 183 193 195 189 186 192 199 201 202 204 206 210 213 212 209 208 206 205 210 220 231 238 248 257 261
109 98 113 126 143 173 185 229 253 260 10 47 33 8 36 75 77 144 119 87 138 195 144 142 204 250 304 358 16 21 47 60 42 45 60 71 89 98 105 105 105 113 112 108 107 108 107 102 99 99 99 99 101 102 104 114 132 145 156 167 171 170 177 188 188 180 175 178 181 186 192 198 204 209 207 200 194 192 199 207 216 223 226 233 244 244
109 68 62 125 149 180 184 218 228 149 93 83 46 15 12 27 47 86 87 108 182 166 171 219 195 172 348 358 3 358 7 19 13 16 22 27 34 34 45 73 78 88 103 109 119 122 112 100 96 101 108 109 110 110 109 110 113 123 142 156 163 164 160 171 185 182 170 166 169 170 175 182 189 193 190 182 177 182 193 203 213 225 229 233 240 243
102 52 16 88 84 139 161 242 280 100 105 136 118 44 350 360 43 72 83 224 154 125 224 263 174 125 8 343 349 341 343 354 6 7 358 356 4 6 16 33 48 59 68 81 97 104 104 103 98 103 110 112 115 118 120 120 117 115 130 147 161 169 164 163 178 182 176 169 167 166 167 167 167 173 175 166 165 182 201 211 222 231 237 241 249 254
107 76 356 75 39 31 61 22 5 60 65 66 86 61 336 12 52 83 127 270 139 137 207 219 102 91 321 333 339 325 324 344 9 6 354 350 349 0 28 35 29 27 29 36 39 37 49 56 52 85 108 115 121 124 126 130 135 135 136 141 151 163 162 157 166 176 178 176 177 180 180 175 173 180 179 167 173 199 209 217 227 232 242 256 265 267
104 90 113 109 60 27 32 24 30 70 65 24 14 12 22 68 81 100 105 322 30 135 165 126 96 67 322 310 323 324 329 28 51 32 25 21 3 6 42 42 24 26 30 28 24 22 24 20 18 32 64 89 101 111 119 126 133 138 137 136 140 145 144 147 157 166 172 177 183 189 192 191 188 186 175 159 168 184 188 199 218 229 244 259 262 261
82 116 158 106 78 9 358 30 51 92 103 78 355 357 39 87 84 71 43 6 47 89 107 101 89 63 352 335 350 358 34 57 54 41 33 27 12 22 47 41 31 40 41 36 34 32 31 30 30 34 39 42 47 65 86 101 115 121 123 126 130 131 131 136 142 145 149 155 163 170 175 178 175 167 158 151 154 157 154 158 171 180 196 213 220 225
64 123 137 83 99 260 315 95 117 107 104 108 16 1 11 59 95 75 40 19 58 140 131 102 96 100 312 347 31 46 56 59 53 41 37 33 27 39 51 44 39 40 40 45 46 39 35 30 28 36 42 40 37 45 54 61 92 106 110 115 117 118 124 125 123 124 125 127 135 143 147 152 155 153 152 151 150 149 145 142 141 141 143 144 142 143
71 133 147 108 129 185 278 97 122 101 97 132 270 335 8 80 120 98 47 14 360 134 144 141 158 190 254 22 70 64 59 61 56 42 38 35 34 46 52 49 47 41 37 43 44 43 43 39 38 42 46 46 43 41 39 41 68 88 97 107 113 119 125 124 119 117 117 119 123 127 130 138 143 141 138 137 134 133 132 129 125 122 121 120 121 121
50 102 141 123 123 169 254 21 68 95 154 234 275 273 189 146 125 105 71 6 355 34 116 137 132 128 95 83 90 82 72 72 66 54 48 40 38 46 46 44 47 44 39 41 42 43 42 43 47 47 46 49 50 50 49 49 53 70 87 100 110 117 120 122 121 118 117 120 122 122 123 128 131 131 128 126 125 124 123 120 116 114 114 114 115 115
72 78 123 92 103 150 222 50 87 188 224 251 309 323 126 123 116 107 89 41 14 28 63 86 90 105 108 100 101 98 96 94 80 59 46 37 36 46 46 40 36 34 32 33 38 40 39 42 45 44 44 49 52 51 50 46 47 56 66 75 84 89 94 105 111 109 111 115 116 119 124 127 131 134 132 129 127 124 121 119 116 114 113 110 111 115
119 113 125 78 91 139 101 88 152 225 264 287 324 341 67 90 80 87 71 30 10 13 51 85 80 86 100 91 95 104 112 102 73 52 37 31 31 39 47 42 35 34 26 18 19 25 30 32 35 36 35 41 51 55 49 45 51 59 60 64 66 65 70 83 88 88 93 100 103 109 119 128 138 142 140 138 135 129 126 125 123 122 121 120 122 122
120 126 116 80 95 139 117 119 195 354 343 275 282 339 103 310 323 114 104 22 341 346 58 108 80 32 30 7 331 334 4 57 56 34 17 19 23 31 44 45 43 41 31 26 30 33 32 23 18 22 19 15 31 46 30 22 46 68 62 59 58 55 58 64 69 69 72 81 87 93 103 117 128 132 133 135 132 127 123 123 122 121 120 122 128 128
81 126 159 155 161 113 99 95 42 22 300 234 234 272 281 248 220 157 115 38 319 331 9 118 96 47 33 15 345 342 34 55 45 357 344 1 7 19 35 36 39 41 34 31 33 35 38 38 32 32 30 24 23 12 343 337 337 15 45 41 46 61 55 52 63 65 49 56 62 72 94 113 123 127 128 129 127 123 119 117 113 108 105 106 111 112
40 47 104 122 133 112 112 131 166 187 222 235 251 290 309 269 189 120 81 322 275 330 4 89 91 65 56 46 16 30 74 74 41 292 309 337 345 2 21 21 27 34 32 31 32 30 31 33 31 31 32 31 26 14 356 340 318 290 289 312 328 263 247 236 199 210 229 230 233 236 223 200 174 150 137 133 133 131 128 126 119 108 98 91 82 73
24 17 50 100 125 116 120 138 185 192 219 261 278 295 305 256 134 99 95 247 260 6 7 83 93 74 64 67 52 61 89 126 192 247 290 317 327 349 12 11 14 21 22 24 27 26 23 20 17 19 24 24 19 10 2 352 333 309 296 298 300 285 260 246 240 243 243 231 224 223 220 218 220 230 233 205 179 161 155 150 136 121 104 74 49 33
15 14 52 114 103 73 104 114 348 255 248 285 299 299 302 169 122 125 205 231 283 33 9 53 79 53 38 57 64 78 128 182 197 236 299 322 330 347 3 5 8 13 16 16 16 15 13 11 8 8 11 13 9 3 2 355 335 312 298 294 292 286 277 271 267 262 255 245 233 220 218 225 236 247 247 234 220 208 200 203 206 206 216 233 5 334
14 11 23 75 66 52 108 112 86 260 284 331 312 303 322 103 159 207 215 210 132 84 33 37 51 24 23 43 56 74 82 315 332 327 321 326 323 333 351 360 2 4 5 7 10 8 2 358 356 354 352 355 355 351 352 352 342 325 307 290 282 283 286 287 283 271 261 252 239 228 229 234 233 230 226 222 221 222 222 227 234 238 239 241 255 270
44 53 26 37 52 60 74 73 104 183 303 331 325 322 1 90 174 196 160 89 102 98 56 48 49 19 20 31 14 346 322 322 325 317 314 316 319 333 345 353 356 355 356 359 3 4 0 354 349 344 338 338 340 338 338 339 338 335 326 311 302 297 291 285 279 272 266 256 242 232 233 233 226 220 219 219 221 223 225 226 229 233 239 245 250 250
22 94 146 232 340 81 102 98 154 190 292 326 27 90 43 65 159 157 86 49 51 51 42 43 29 359 14 22 351 332 312 314 318 320 322 324 331 339 343 347 350 352 354 356 356 356 356 351 346 341 334 329 330 330 329 329 328 324 320 318 322 320 308 292 277 267 263 256 245 235 229 225 221 221 222 222 221 221 221 222 223 226 232 238 237 231
7 96 130 120 44 83 117 144 165 191 298 346 51 93 99 83 84 101 99 75 48 50 106 67 20 353 5 13 349 339 320 321 327 329 329 329 328 334 339 342 345 347 347 347 347 346 345 341 337 334 329 326 326 324 322 323 322 316 310 309 313 318 319 312 296 273 260 254 248 237 227 220 218 218 220 219 218 219 219 219 220 221 224 228 228 228
210 102 83 88 106 79 63 73 115 155 206 36 61 93 124 138 162 156 136 140 211 220 140 56 8 348 360 24 18 347 321 330 338 333 331 334 330 332 337 338 338 342 341 340 339 338 337 334 330 328 325 321 319 318 315 314 313 309 307 305 305 307 312 313 306 289 269 259 251 239 227 220 216 215 215 216 219 222 223 224 225 227 228 230 232 236
271 105 77 91 115 99 90 149 169 167 174 143 109 80 79 107 133 130 140 169 192 135 48 23 25 9 12 36 39 330 307 330 349 338 331 337 331 329 333 331 329 332 332 330 331 330 328 326 325 324 324 322 320 318 312 305 301 300 302 304 304 304 304 303 302 295 282 269 259 245 231 223 220 217 216 218 221 224 227 230 234 237 240 241 242 243
311 74 88 92 87 98 182 200 183 30 316 293 149 142 156 150 81 58 82 138 120 96 64 44 65 81 49 44 60 325 314 333 344 330 325 326 321 319 320 319 319 321 321 319 319 318 317 315 313 312 313 314 317 319 315 307 300 295 293 296 299 301 299 295 291 289 284 277 268 254 239 230 227 226 225 226 229 231 235 238 242 246 249 252 254 254
14 55 99 102 74 68 161 190 78 36 329 306 283 237 229 212 159 66 57 79 86 86 77 63 67 88 90 68 57 27 347 329 320 320 318 313 312 314 314 313 313 313 313 313 311 310 308 304 300 299 299 300 304 307 308 307 306 303 298 294 291 292 292 288 283 280 278 276 269 257 243 233 231 232 235 238 238 240 242 242 244 248 250 252 255 258
59 87 120 93 89 108 225 193 160 148 242 257 237 230 234 198 135 115 102 80 61 57 74 66 47 45 54 46 24 12 341 312 316 324 317 308 309 312 313 314 312 310 309 309 308 305 302 298 295 293 292 294 298 298 297 297 300 303 306 303 296 290 288 286 281 276 272 269 266 257 246 239 238 239 242 245 246 246 247 246 247 249 250 251 251 252
125 158 160 131 141 216 227 199 166 145 189 230 211 205 223 168 122 130 147 121 81 74 104 90 44 1 351 346 341 333 310 307 319 323 313 306 309 311 312 312 309 306 305 305 303 301 300 300 298 295 293 296 299 297 293 291 291 294 302 310 310 301 290 284 279 273 267 263 258 251 245 243 244 246 249 251 254 256 257 257 256 255 254 255 254 252